This demonstration page uses our WeatherBlox Daily Observations layout. Learn more.

41.55636, -103.73856

Hourly Observations for August 4, 2016

Temp ( °F °C ) Dew Point ( °F °C ) Humidity (%) Winds ( mph kmh ) Pressure ( in mb ) Visibility ( mi km ) Precip ( " mm )
12:53 am 00:53 Clear 73 22.8 58 14.4 59 59 N 8 13 29.73 1007 10 16.0934 0 0
1:53 am 01:53 Clear 72 22.2 58 14.4 61 61 WNW 7 11 29.75 1007 10 16.0934 0 0
2:53 am 02:53 Clear 72 22.2 48 8.9 43 43 N 15 24 29.78 1009 10 16.0934 0 0
3:06 am 03:06 Clear 72 22 45 7 38 38 NNE 15 24 29.74 1007 10 16.0934 0 0
3:53 am 03:53 Clear 69 20.6 38 3.3 32 32 NNE 21 33 29.83 1010 10 16.0934 0 0
4:53 am 04:53 Clear 67 19.4 35 1.7 31 31 NNE 22 35 29.87 1011 10 16.0934 0 0
5:53 am 05:53 Sunny 65 18.3 35 1.7 33 33 VRB 6 9 29.95 1014 10 16.0934 0 0
6:53 am 06:53 Sunny 64 17.8 37 2.8 37 37 NNW 7 11 30.01 1016 10 16.0934 0 0
7:53 am 07:53 Sunny 67 19.4 37 2.8 33 33 N 10 17 30.04 1017 10 16.0934 0 0
8:53 am 08:53 Sunny 70 21.1 37 2.8 30 30 NNE 14 22 30.05 1018 10 16.0934 0 0
9:53 am 09:53 Sunny 71 21.7 39 3.9 31 31 N 7 11 30.05 1018 10 16.0934 0 0
10:53 am 10:53 Sunny 71 21.7 39 3.9 31 31 N 7 11 30.06 1018 10 16.0934 0 0
11:53 am 11:53 Sunny 74 23.3 36 2.2 25 25 SW 8 13 30.05 1018 10 16.0934 0 0
12:53 pm 12:53 Sunny 74 23.3 42 5.6 32 32 Calm 30.05 1018 10 16.0934 0 0
1:53 pm 13:53 Sunny 74 23.3 41 5 31 31 WNW 3 6 30.05 1018 10 16.0934 0 0
2:53 pm 14:53 Sunny 76 24.4 42 5.6 30 30 WNW 6 9 30.04 1017 10 16.0934 0 0
3:53 pm 15:53 Sunny 75 23.9 44 6.7 33 33 W 8 13 30.04 1017 10 16.0934 0 0
4:53 pm 16:53 Mostly Cloudy 74 23.3 44 6.7 34 34 WNW 5 7 30.03 1017 10 16.0934 0 0
5:53 pm 17:53 Partly Cloudy 73 22.8 47 8.3 40 40 WSW 5 7 30.03 1017 7 11.26538 0 0.0254
6:53 pm 18:53 Partly Cloudy 73 22.8 43 6.1 34 34 Calm 30.01 1016 10 16.0934 0 0
7:53 pm 19:53 Partly Cloudy 71 21.7 49 9.4 46 46 SE 5 7 30.03 1017 10 16.0934 0 0
8:53 pm 20:53 Cloudy with Light Rain 68 20 56 13.3 65 65 undefined N/A 30.07 1018 10 16.0934 0.01 0.254
9:53 pm 21:53 Cloudy with Light Rain 66 18.9 58 14.4 75 75 undefined N/A 30.09 1019 10 16.0934 0 0.0254
10:53 pm 22:53 Cloudy 63 17.2 56 13.3 78 78 SSW 6 9 30.09 1019 10 16.0934 0 0.0254
11:53 pm 23:53 Cloudy 63 17.2 57 13.9 81 81 Calm 30.06 1018 10 16.0934 0 0

Powered by AerisWeather